OH2MUI Weather Reports


time (UTC)temp
F
wind
direction
speed
knots
gust
knots
rain 1hr
in
rain 24hr
in
rain mn
in
humidity
%
barometer
mb
20260506111524 51 270 2.6 8.7 0.00 0.00 0.00 40 1015.0
20260506105621 51 303 2.6 7.0 0.00 0.00 0.00 42 1014.8
20260506103814 51 248 2.6 7.0 0.00 0.00 0.00 45 1014.8
20260506102129 51 278 1.7 7.0 0.00 0.00 0.00 43 1014.7
20260506100409 51 251 2.6 10.4 0.00 0.00 0.00 42 1014.8
20260506094509 51 218 2.6 7.0 0.00 0.00 0.00 45 1014.6
20260506092811 50 311 1.7 5.2 0.00 0.00 0.00 48 1014.6
20260506092804 50 311 1.7 5.2 0.00 0.00 0.00 48 1014.6
20260506091104 49 212 0.9 3.5 0.00 0.00 0.00 49 1014.5
20260506085239 50 270 2.6 5.2 0.00 0.00 0.00 48 1014.5
20260506083344 49 303 0.9 4.3 0.00 0.00 0.00 49 1014.4
20260506081709 48 286 0.9 5.2 0.00 0.00 0.00 52 1014.4
20260506072047 47 310 1.7 5.2 0.00 0.00 0.00 58 1014.0
20260506070349 46 225 0.9 3.5 0.00 0.00 0.00 63 1014.0
20260506060744 42 230 1.7 3.5 0.00 0.00 0.00 81 1014.0
20260506051258 38 244 2.6 5.2 0.00 0.00 0.00 88 1013.2
20260506043544 36 284 0.9 2.6 0.00 0.00 0.00 91 1012.9
20260506041710 34 283 0.9 3.5 0.00 0.00 0.00 92 1012.7
20260506041704 34 283 0.9 3.5 0.00 0.00 0.00 92 1012.7
20260506035924 34 239 0.0 2.6 0.00 0.00 0.00 93 1012.5
20260506035919 34 239 0.0 2.6 0.00 0.00 0.00 93 1012.5
20260506034049 33 349 0.0 3.5 0.00 0.00 0.00 92 1012.3
20260506032329 32 5 0.0 1.7 0.00 0.00 0.00 92 1012.0
20260506030611 32 331 0.0 2.6 0.00 0.00 0.00 93 1011.9
20260506024625 31 53 0.9 2.6 0.00 0.00 0.00 91 10.1
20260506024619 31 53 0.9 2.6 0.00 0.00 0.00 91 1011.8
20260506022739 31 90 0.0 1.7 0.00 0.00 0.00 90 1011.6
20260506021059 31 57 0.0 1.7 0.00 0.00 0.00 89 1011.5
20260506015129 32 48 0.0 2.6 0.00 0.00 0.00 88 1011.3
20260506013519 32 90 0.0 2.6 0.00 0.00 0.00 86 1011.1
20260506011612 33 45 0.9 2.6 0.00 0.00 0.00 85 1011.1
20260506011604 33 45 0.9 2.6 0.00 0.00 0.00 85 1011.1
20260506005758 34 50 0.0 0.9 0.00 0.00 0.00 82 1011.0
20260506004032 35 45 0.0 1.7 0.00 0.00 0.00 81 1010.8
20260506002149 35 219 0.0 2.6 0.00 0.00 0.00 80 1010.7
20260506000330 35 225 0.0 1.7 0.00 0.00 0.00 80 1010.6
20260505234603 35 199 0.9 2.6 0.00 0.00 0.00 79 1010.4
20260505232724 36 227 0.9 3.5 0.00 0.00 0.00 79 1010.4
20260505230909 36 229 0.9 3.5 0.00 0.00 0.00 78 1010.4
20260505225134 37 225 0.9 3.5 0.00 0.00 0.00 78 1010.3
20260505223304 37 270 0.0 2.6 0.00 0.00 0.00 76 1010.2
20260505221314 37 222 0.9 5.2 0.00 0.00 0.00 76 1010.1
20260505215454 38 225 1.7 5.2 0.00 0.00 0.00 75 1010.0
20260505215449 38 225 1.7 5.2 0.00 0.00 0.00 75 1010.0
20260505213659 38 230 1.7 5.2 0.00 0.00 0.00 74 1010.0
20260505211725 39 225 2.6 0.0 0.00 0.00 0.00 73 1009.9
20260505211719 39 225 2.6 7.0 0.00 0.00 0.00 73 1009.9
20260505205934 39 237 2.6 7.0 0.00 0.03 0.03 72 1009.7
20260505203952 40 227 0.9 2.6 0.00 0.03 0.03 71 1009.4
20260505202135 40 220 0.9 4.3 0.00 0.03 0.03 69 1009.2
20260505200349 41 222 2.6 5.2 0.00 0.03 0.03 68 1009.0
20260505194444 41 225 0.0 2.6 0.00 0.03 0.03 65 1008.9
20260505192524 42 225 2.6 7.0 0.00 0.03 0.03 65 1008.8
20260505190719 42 240 0.9 4.3 0.00 0.03 0.03 64 1008.7
20260505184839 43 222 0.9 3.5 0.00 0.03 0.03 64 1008.5
20260505183124 43 230 2.6 5.2 0.00 0.03 0.03 61 108.3
20260505183119 43 230 2.6 5.2 0.00 0.03 0.03 61 1008.3
20260505181459 44 228 2.6 7.0 0.00 0.03 0.03 58 1008.1
20260505175612 45 231 3.5 8.7 0.00 0.03 0.03 58 1008.1
20260505173858 47 236 2.6 7.8 0.00 0.03 0.03 57 1007.8
20260505173852 47 236 2.6 7.8 0.00 0.03 0.03 57 1007.8
20260505172119 48 229 3.5 7.0 0.00 0.03 0.03 55 1007.6
20260505170329 48 227 3.5 9.6 0.00 0.03 0.03 54 1007.5
20260505164430 48 231 2.6 5.2 0.00 0.03 0.03 55 1007.3
20260505162509 48 218 2.6 7.8 0.00 0.03 0.03 55 1007.2
20260505160557 48 219 5.2 12.2 0.00 0.03 0.03 54 1007.2
20260505160553 48 219 5.2 12.2 0.00 0.03 0.03 54 1007.2
20260505153052 49 225 5.2 12.2 0.00 0.03 0.03 54 1007.0
20260505151411 48 245 2.6 7.0 0.00 0.03 0.03 53 1006.9
20260505140126 49 241 4.3 13.9 0.00 0.03 0.03 49 1006.6
20260505140124 49 241 4.3 13.9 0.00 0.03 0.03 49 1006.6
20260505124732 50 231 3.5 8.7 0.00 0.03 0.03 50 1006.1
20260505123117 50 243 2.6 7.0 0.00 0.03 0.03 54 1005.9
20260505121444 49 225 3.5 8.7 0.00 0.03 0.03 52 1005.8
20260505115612 49 237 5.2 13.0 0.00 0.03 0.03 52 1005.8
20260505113814 49 249 1.7 7.8 0.00 0.03 0.03 59 1005.6